GONETS-M 23 (54150 NORAD) Tracking and Keplerian Element Data

This shows tracking and keplerian element data for the satellite.

Feedback or suggestion? Click here.




ElementValue
Catalog54150
NameGONETS-M 23
Epoch Orbit361
Epoch Day324.87597605
Epoch Year2022
RAAN78.7773
Inclination82.5069
Eccentricity0.0017133
Argument of Perigee181.8368
Mean Anonmoly178.2656
Mean Motion12.41995087
Decay Rate1E-07
L11 54150U 22139A 22324.87597605 .00000010 00000+0 00000+0 0 9991
L22 54150 82.5069 78.7773 0017133 181.8368 178.2656 12.41995087 3617



Live tracking and technical data element details for GONETS-M 23 (NORAD 54150). GONETS-M 23 can be tracked NOW for your location showing map with azimuth and elevation plus other details from your city location.







IsCatalogInMostPopularTable: catalog: 54150, numindb: 8
Update: records affected: 1



GetName: 54150 GONETS-M 23

Hit Count: updated at: Sun, 04 Dec 2022 22:45:19 GMT